Location: Bar
(45.3460°N, 1.8135°E)
Time: 01:20:24
(UTC+00:00)

Daily predictions for brighter satellites

Satellite Brightness Start Highest point End
(mag) Time Altitude Azimuth Time Altitude Azimuth Time Altitude Azimuth
ATLAS CENTAUR R/B 4.5 00:03:26 10° NNE 00:04:15 11° NNE 00:05:11 10° NE
Lacrosse 5 4.0 00:02:03 10° W 00:03:12 13° W 00:03:12 13° W
STARLINK-1104 3.9 00:04:48 10° WNW 00:08:12 58° WNW 00:08:12 58° WNW
Cosmos 1655 Rocket 4.3 00:07:30 40° SW 00:09:32 58° WNW 00:15:43 10° N
GEOS 3 Rocket 4.1 00:07:39 23° ESE 00:10:46 57° NE 00:15:57 10° NNW
S3M 4.3 00:05:02 10° NNW 00:10:58 52° W 00:12:36 41° SW
Cosmos 1726 2.7 00:07:50 10° NNW 00:10:54 51° NW 00:10:54 51° NW
Cosmos 2058 Rocket 4.4 00:08:37 10° N 00:12:35 31° ENE 00:13:46 27° ESE
COSMOS 2455 3.2 00:11:40 44° SSE 00:12:46 49° ESE 00:18:33 10° NE
STARLINK-1144 4.1 00:09:47 10° WNW 00:12:59 51° WNW 00:12:59 51° WNW
Cosmos 2263 4.3 00:12:25 45° SW 00:14:05 69° WNW 00:19:42 10° NNE
Meteor 1-29 4.3 00:11:04 10° NNE 00:13:32 32° ENE 00:13:32 32° ENE
SL-27 R/B 4.4 00:11:17 10° NW 00:13:10 22° WNW 00:13:10 22° WNW
Cosmos 2228 3.1 00:11:00 10° N 00:15:14 61° E 00:15:32 59° ESE
STARLINK-1103 4.3 00:14:47 10° WNW 00:17:46 45° WNW 00:17:46 45° WNW
Meteor 2-15 Rocket 4.4 00:12:48 10° N 00:19:00 88° E 00:20:54 48° S
Cosmos 1953 3.1 00:15:59 10° NNW 00:19:26 41° WNW 00:19:26 41° WNW
Cosmos 1340 Rocket 3.1 00:17:26 10° NNW 00:21:08 56° WNW 00:21:08 56° WNW
Cosmos 1271 Rocket 4.3 00:21:40 24° WNW 00:21:53 24° WNW 00:25:07 10° NNW
Okean 1-7 Rocket 4.4 00:22:03 37° ESE 00:22:37 39° E 00:26:48 10° NNE
STARLINK-1101 4.5 00:19:46 10° WNW 00:22:33 39° WNW 00:22:33 39° WNW
Cosmos 1300 4.3 00:21:04 10° NNE 00:24:21 26° ENE 00:25:04 25° E
Cosmos 1992 Rocket 4.3 00:25:15 45° WSW 00:26:34 59° WNW 00:31:44 10° NNE
COSMOS 2487 2.9 00:24:24 10° NNW 00:27:18 57° N 00:27:18 57° N
Cosmos 1833 4.2 00:23:07 10° NNW 00:28:43 63° WSW 00:29:45 53° SSW
Cosmos 1707 4.4 00:29:05 23° WNW 00:29:20 23° WNW 00:32:30 10° NNW
USA 215 4.3 00:33:07 25° WSW 00:33:07 25° WSW 00:37:57 10° WNW
Cosmos 1626 3.0 00:34:31 39° E 00:34:31 39° E 00:37:55 10° NNE
Cosmos 1656 Rocket 3.8 00:33:51 43° SW 00:35:38 66° WNW 00:41:14 10° NNE
Cosmos 1606 Rocket 3.4 00:34:18 10° NNW 00:38:37 72° W 00:38:48 70° WSW
FALCON 9 R/B 3.4 00:38:25 37° S 00:39:24 39° SSE 00:54:14 10° E
CZ-4 R/B 4.1 00:39:39 10° N 00:44:25 59° WNW 00:45:23 48° WSW
Meteor 2-21 4.4 00:45:34 44° S 00:47:41 84° E 00:53:53 10° N
Cosmos 2297 Rocket 4.1 00:43:17 10° N 00:48:03 27° NE 00:52:47 10° ESE
SL-4 R/B 2.3 00:49:12 63° S 00:49:41 68° SE 00:54:26 10° ENE
NOSS 3-2 (C) 4.3 00:44:02 10° NW 00:51:24 50° WSW 00:54:30 35° SSW
Cosmos 1437 4.2 00:52:48 29° ENE 00:52:48 29° ENE 00:54:58 10° NNE
PSLV R/B 4.0 00:48:34 10° N 00:53:04 52° WNW 00:53:53 46° WSW
Cosmos 1674 3.5 00:53:21 39° WNW 00:53:21 39° WNW 00:56:49 10° N
ATLAS CENTAUR R/B 1.3 00:56:56 70° SSW 00:57:26 88° ESE 01:01:38 10° NE
SL-19 R/B 4.2 00:52:47 10° NNE 00:58:13 81° ESE 01:00:03 44° S
Cosmos 1777 Rocket 3.9 00:54:48 10° NNW 01:00:04 90° W 01:01:54 42° SSE
Timation 2 Rocket 4.1 00:53:53 10° NNW 01:00:17 75° ENE 01:04:30 21° SE
NOSS 3-4 (A) 3.6 00:57:31 32° WSW 01:00:19 65° NW 01:06:40 10° NE
NOSS 3-4 (C) 3.6 00:57:37 33° WSW 01:00:25 66° NW 01:06:47 10° NE
SL-16 R/B 3.1 00:56:01 18° SE 01:00:33 54° ENE 01:06:32 10° N
BREEZE-M R/B 3.6 01:01:08 41° SE 01:01:08 41° SE 01:04:03 10° ENE
Spot 1 4.2 01:00:54 54° S 01:01:58 85° WSW 01:06:50 10° NNW
STARLINK-29 4.4 01:04:34 31° E 01:04:34 31° E 01:06:30 10° ENE
ATLAS 3B R/B 2.6 01:00:33 10° NW 01:07:22 81° SW 01:12:43 19° SSE
CENTAUR R/B 3.5 01:03:29 10° NW 01:11:12 46° WSW 01:14:47 32° SSW
BREEZE-M DEB (TANK) 2.2 01:12:39 47° NE 01:12:39 47° NE 01:14:22 10° ENE
Meteor 2-21 Rocket 4.4 01:11:40 39° SSW 01:14:06 80° W 01:20:19 10° N
Cosmos 1745 Rocket 4.1 01:12:45 33° S 01:15:36 72° E 01:21:43 10° NNE
Cosmos 1892 Rocket 4.0 01:14:51 42° WSW 01:15:36 47° WNW 01:19:53 10° N
Cosmos 1867 3.8 01:10:31 10° NW 01:15:45 48° WSW 01:16:44 43° SSW
RESURS DK-1 2.3 01:19:17 61° SSW 01:19:57 85° ESE 01:24:07 10° NNE
Meteor 1-24 Rocket 3.8 01:22:03 39° SW 01:23:49 60° WNW 01:29:09 10° N
Cosmos 2227 Rocket 3.4 01:18:33 10° NNW 01:23:54 41° NE 01:29:13 10° SE
Cosmos 1356 Rocket 3.4 01:20:21 10° N 01:24:30 77° E 01:25:49 43° SSE
Cosmos 2369 Rocket 4.3 01:21:25 10° W 01:25:17 18° NW 01:29:09 10° N
CZ-2D R/B 2.3 01:22:42 10° NNE 01:27:56 63° ESE 01:30:15 33° S
Helios 1B rocket 4.2 01:25:00 10° NNW 01:28:05 21° WNW 01:29:11 19° W
ATLAS 2AS CENTAUR R/B 3.7 01:23:17 18° WSW 01:29:16 51° NW 01:36:58 10° NNE
ADEOS II 3.7 01:26:00 10° NE 01:30:27 27° E 01:34:08 13° SE
CZ-4C R/B 3.4 01:30:46 46° S 01:31:58 81° WSW 01:36:19 10° NNW
STARLINK-1228 3.0 01:31:36 10° WNW 01:34:57 86° NNE 01:38:18 10° ESE
DELTA 2 DEB (DPAF) 4.3 01:34:10 44° SW 01:35:06 52° W 01:39:30 10° NNW
STARLINK-1234 2.8 01:33:02 10° WNW 01:36:10 82° NNE 01:37:02 44° ESE
STARLINK-1212 3.2 01:34:25 10° NW 01:37:30 64° NNE 01:40:35 10° ESE
Resurs 1-4 Rocket 2.1 01:32:24 10° NNE 01:37:43 79° ESE 01:40:11 33° S
STARLINK-1105 3.2 01:34:53 10° NW 01:37:58 64° NNE 01:41:02 10° ESE
STARLINK-1209 2.7 01:35:17 10° WNW 01:38:26 89° WSW 01:38:43 73° SE
STARLINK-1247 3.2 01:35:47 10° NW 01:38:54 65° NNE 01:42:00 10° ESE
USA 81 4.3 01:36:20 27° SSE 01:39:09 65° E 01:44:24 10° N
STARLINK-1227 3.2 01:36:15 10° NW 01:39:20 66° NNE 01:42:25 10° ESE
STARLINK-52 2.7 01:39:41 82° SW 01:39:48 89° SSE 01:43:02 10° ENE
STARLINK-1226 3.1 01:37:06 10° NW 01:40:12 67° NNE 01:43:18 10° ESE
STARLINK-1215 3.1 01:38:03 10° NW 01:41:10 68° NNE 01:44:16 10° ESE
STARLINK-1217 3.0 01:39:48 10° NW 01:42:56 71° NNE 01:46:01 10° ESE
STARLINK-1229 3.0 01:40:43 10° NW 01:43:51 72° NNE 01:46:58 10° ESE
STARLINK-1270 3.0 01:41:35 10° NW 01:44:42 73° NNE 01:47:50 10° ESE
NPP 3.7 01:39:44 10° NNE 01:45:09 78° ESE 01:47:57 30° S
STARLINK-1189 2.9 01:43:25 10° NW 01:46:33 76° NNE 01:49:40 10° ESE
STARLINK-1188 2.9 01:44:18 10° NW 01:47:27 77° NNE 01:50:34 10° ESE
STARLINK-1235 2.7 01:45:00 10° WNW 01:48:06 83° SSW 01:51:12 10° SE
STARLINK-1187 2.7 01:45:25 10° WNW 01:48:32 88° NE 01:51:38 10° ESE
GEOS 3 Rocket 4.4 01:48:43 29° SW 01:49:01 29° WSW 01:53:33 10° WNW
Cosmos 1898 Rocket 4.3 01:44:06 10° NNW 01:49:19 51° ENE 01:54:29 10° SE
STARLINK-1191 2.8 01:46:47 10° WNW 01:49:53 81° NNE 01:52:59 10° ESE
Meteor 1-21 Rocket 4.4 01:46:49 26° S 01:50:01 71° E 01:55:40 10° NNE
Cosmos 2058 Rocket 4.3 01:46:50 10° NNW 01:50:26 25° W 01:51:01 24° WSW
Lacrosse 4 Rocket 4.3 01:47:16 10° N 01:50:33 20° NE 01:53:46 10° E
STARLINK-1221 2.8 01:47:39 10° WNW 01:50:46 82° NNE 01:53:52 10° ESE
Cosmos 1656 4.1 01:48:20 26° S 01:51:24 56° ESE 01:56:55 10° NNE
STARLINK-1222 2.8 01:48:33 10° WNW 01:51:40 83° NNE 01:54:46 10° ESE
STARLINK-1214 2.8 01:49:28 10° WNW 01:52:34 85° NNE 01:55:40 10° ESE
CZ-4C R/B 3.4 01:50:43 18° SSE 01:53:23 28° ESE 01:58:07 10° NE
Cosmos 2084 3.5 01:52:18 38° SW 01:54:00 88° WNW 01:58:30 10° NE
SJ 16-02 1.8 01:50:31 10° NNW 01:54:55 61° ENE 01:59:16 10° SSE
SL-08 ROCKET BODY 4.5 01:52:04 30° SSW 01:54:58 60° WNW 02:00:47 10° N
Cosmos 468 Rocket 4.5 01:52:22 24° S 01:55:12 52° ESE 02:00:11 10° NNE
STARLINK-1197 4.4 01:53:58 10° NW 01:58:02 53° NNE 02:02:06 10° ESE
COSMOS 2455 4.0 01:54:47 16° WSW 01:58:53 35° NW 02:04:24 10° NNE
Cosmos 1300 4.1 01:56:52 10° NW 01:59:52 22° W 02:00:00 22° W
Cosmos 921 Rocket 3.9 02:00:21 27° WSW 02:01:54 36° WNW 02:05:54 10° N
Meteor 2-10 Rocket 3.5 01:56:41 10° N 02:02:03 87° ENE 02:06:01 17° S
STARLINK-1198 4.3 01:58:54 10° NW 02:03:01 57° NNE 02:07:05 10° ESE
Cosmos 1709 Rocket 3.9 02:01:48 24° S 02:05:43 86° W 02:11:53 10° N
STARLINK-1199 4.2 02:03:55 10° NW 02:08:02 60° NNE 02:12:08 10° ESE
Cosmos 1626 Rocket 4.3 02:06:42 28° WSW 02:08:13 37° WNW 02:12:17 10° N
Cosmos 1626 4.2 02:09:03 14° W 02:09:53 15° WNW 02:12:06 10° NNW
STARLINK-1210 4.0 02:08:53 10° NW 02:13:01 64° NNE 02:17:07 10° ESE
STARLINK-1320 2.9 02:14:52 43° SSW 02:15:37 61° SE 02:18:43 10° ENE
STARLINK-1322 2.9 02:15:11 43° SSW 02:15:57 62° SE 02:19:02 10° ENE
STARLINK-1324 2.9 02:15:32 43° SSW 02:16:19 62° SE 02:19:24 10° ENE
STARLINK-1294 2.9 02:15:47 43° SSW 02:16:35 63° SE 02:19:42 10° ENE
Cosmos 2219 3.2 02:11:20 10° NNW 02:16:55 60° WSW 02:22:14 11° S
STARLINK-1261 2.9 02:16:10 43° SSW 02:16:58 63° SE 02:20:03 10° ENE
STARLINK-1325 2.9 02:16:30 42° SSW 02:17:19 64° SE 02:20:25 10° ENE
STARLINK-1333 2.9 02:16:48 42° SSW 02:17:38 64° SE 02:20:44 10° ENE
STARLINK-1334 2.9 02:17:07 42° SSW 02:17:58 65° SE 02:21:04 10° ENE
STARLINK-1219 3.9 02:13:51 10° NW 02:18:00 69° NNE 02:22:07 10° ESE
STARLINK-1326 2.9 02:17:28 42° SSW 02:18:19 65° SE 02:21:25 10° ENE
STARLINK-1323 2.9 02:17:47 41° SSW 02:18:39 66° SE 02:21:45 10° ENE
Cosmos 1980 Rocket 3.8 02:14:09 10° SSE 02:18:48 28° ESE 02:23:30 10° NE
STARLINK-1338 3.3 02:17:39 35° SSW 02:18:52 61° SE 02:22:18 10° ENE
STARLINK-1349 2.9 02:18:06 41° SSW 02:18:58 66° SE 02:22:05 10° ENE
STARLINK-1336 2.9 02:18:28 41° SSW 02:19:21 67° SE 02:22:27 10° ENE
STARLINK-1331 2.9 02:18:45 41° SSW 02:19:39 67° SE 02:22:45 10° ENE
STARLINK-1344 2.8 02:19:05 40° SSW 02:19:59 68° SE 02:23:06 10° ENE
STARLINK-1343 2.8 02:19:25 40° SW 02:20:20 68° SE 02:23:27 10° ENE
STARLINK-1346 2.9 02:19:43 39° SW 02:20:41 69° SE 02:23:50 10° ENE
STARLINK-1328 2.8 02:20:05 40° SW 02:21:02 69° SE 02:24:08 10° ENE
STARLINK-1354 2.8 02:20:22 39° SW 02:21:20 70° SE 02:24:27 10° ENE
STARLINK-1347 2.8 02:20:44 39° SW 02:21:42 70° SE 02:24:48 10° ENE
Cosmos 1328 3.8 02:19:18 23° S 02:21:45 78° E 02:25:44 10° NNE
STARLINK-1357 2.8 02:21:02 39° SW 02:22:01 71° SE 02:25:07 10° ENE
STARLINK-1335 2.8 02:21:22 38° SW 02:22:22 71° SE 02:25:29 10° ENE
STARLINK-1327 2.8 02:21:41 38° SW 02:22:41 72° SE 02:25:48 10° ENE
STARLINK-1371 3.2 02:21:31 33° SW 02:22:53 66° SE 02:26:22 10° ENE
STARLINK-1211 3.8 02:18:49 10° NW 02:22:58 73° NNE 02:27:06 10° ESE
STARLINK-1340 2.8 02:22:01 38° SW 02:23:03 72° SE 02:26:10 10° ENE
STARLINK-1356 2.8 02:22:21 38° SW 02:23:23 73° SSE 02:26:30 10° ENE
STARLINK-1345 2.8 02:22:40 37° SW 02:23:44 73° SE 02:26:50 10° ENE
STARLINK-1355 2.8 02:22:59 37° SW 02:24:03 74° SSE 02:27:11 10° ENE
ERS-2 3.4 02:20:56 10° SE 02:24:22 41° ENE 02:27:51 10° N
STARLINK-1321 2.8 02:23:18 37° SW 02:24:22 74° SSE 02:27:30 10° ENE
STARLINK-1358 2.8 02:23:39 36° SW 02:24:45 75° SE 02:27:52 10° ENE
STARLINK-1341 3.2 02:23:29 32° SW 02:24:56 69° SE 02:28:25 10° ENE
STARLINK-1332 2.8 02:23:57 36° SW 02:25:04 75° SE 02:28:11 10° ENE
STARLINK-1348 2.8 02:24:18 36° SW 02:25:25 76° SE 02:28:33 10° ENE
STARLINK-1330 2.8 02:24:36 36° SW 02:25:44 76° SE 02:28:52 10° ENE
STARLINK-1363 2.8 02:24:56 35° SW 02:26:04 77° SE 02:29:11 10° ENE
STARLINK-1337 2.8 02:25:15 35° SW 02:26:24 78° SE 02:29:32 10° ENE
STARLINK-1342 2.8 02:25:35 35° SW 02:26:45 78° SSE 02:29:52 10° ENE
STARLINK-1374 3.1 02:25:26 31° SW 02:26:59 71° SE 02:30:28 10° ENE
STARLINK-1364 2.8 02:25:55 35° SW 02:27:06 79° SE 02:30:13 10° ENE
STARLINK-1376 2.8 02:26:15 34° SW 02:27:27 79° SE 02:30:34 10° ENE
STARLINK-1360 2.8 02:26:30 34° SW 02:27:43 80° SE 02:30:50 10° ENE
STARLINK-1245 3.7 02:23:48 10° WNW 02:27:58 79° NNE 02:32:07 10° ESE
STARLINK-1361 2.8 02:26:56 34° SW 02:28:09 80° SE 02:31:16 10° ENE
STARLINK-1367 2.8 02:27:10 33° SW 02:28:25 80° SSE 02:31:35 10° ENE
STARLINK-1366 2.8 02:27:33 33° SW 02:28:47 81° SSE 02:31:55 10° ENE
IRS-1C 4.3 02:23:33 10° NNE 02:28:54 72° ESE 02:33:25 15° S
STARLINK-1339 3.1 02:27:27 29° SW 02:29:03 74° SE 02:32:34 10° ENE
AQUA 4.2 02:24:41 10° N 02:29:17 50° WNW 02:32:11 21° SW
Cosmos 1812 Rocket 4.4 02:25:37 10° NNW 02:29:38 33° W 02:31:37 22° SW
SL-4 R/B 3.3 02:25:00 10° W 02:29:40 46° NNW 02:34:09 10° ENE
STARLINK-1377 3.1 02:29:28 28° SW 02:31:09 77° SE 02:34:40 10° ENE
CZ-4B R/B 4.0 02:26:52 10° N 02:31:48 48° WNW 02:35:12 20° SW
Cosmos 2297 Rocket 2.3 02:26:55 10° NNW 02:32:27 56° WSW 02:37:56 10° S
STARLINK-1233 3.6 02:28:46 10° WNW 02:32:56 84° NNE 02:37:05 10° ESE
STARLINK-1353 3.1 02:31:17 27° SW 02:33:01 79° SE 02:36:30 10° ENE
STARLINK-1375 3.1 02:33:04 26° SW 02:34:53 82° SE 02:38:22 10° ENE
Cosmos 2082 3.8 02:30:30 10° NNW 02:36:12 82° ENE 02:41:50 10° SSE
ATLAS CENTAUR R/B 3.7 02:34:05 10° WNW 02:36:50 16° NW 02:39:30 10° N
Cosmos 540 Rocket 4.1 02:32:22 12° S 02:36:54 51° ESE 02:41:52 10° NNE
STARLINK-1350 3.1 02:35:22 25° SW 02:37:15 86° SSE 02:40:46 10° ENE
FALCON 9 DEB 3.9 02:35:24 17° W 02:37:49 48° NNW 02:41:12 10° NE
STARLINK-1204 3.6 02:33:46 10° WNW 02:37:56 90° NNE 02:42:05 10° ESE
Cosmos 990 Rocket 4.0 02:33:06 10° NNW 02:38:18 61° WSW 02:43:27 10° S
CBERS-1 4.2 02:33:40 10° N 02:38:43 61° WNW 02:42:28 18° SSW
STARLINK-29 4.4 02:36:59 12° W 02:39:38 32° NNW 02:42:34 10° NE
STARLINK-1352 3.1 02:37:39 23° WSW 02:39:41 89° SE 02:43:14 10° ENE
OE (NEXTSAT) 4.4 02:36:54 14° W 02:39:52 79° N 02:43:21 10° E
Cosmos 1825 Rocket 3.7 02:38:21 20° SSW 02:41:09 56° WNW 02:45:25 10° N
Cosmos 2278 4.4 02:36:09 12° S 02:41:15 51° ESE 02:46:43 10° NE
STARLINK-1368 3.1 02:39:45 22° WSW 02:41:52 87° NW 02:45:24 10° ENE
Cosmos 1455 2.9 02:38:58 10° NNW 02:42:23 34° W 02:44:16 21° SW
STARLINK-1238 3.5 02:38:43 10° WNW 02:42:53 85° SSW 02:47:01 10° SE
CZ-2D R/B 4.3 02:39:12 10° NNE 02:43:11 46° E 02:47:14 10° S
Meteor 1-11 4.4 02:38:11 11° S 02:43:37 77° E 02:49:14 10° NNE
STARLINK-1369 3.1 02:41:37 22° WSW 02:43:47 85° NNW 02:47:17 10° ENE
Meteor 1-28 Rocket 3.5 02:40:24 10° SSE 02:44:09 68° ENE 02:47:55 10° N
SL-16 R/B 3.5 02:41:06 17° SW 02:44:27 27° W 02:49:37 10° NW
USA 234 4.3 02:39:20 10° ENE 02:45:11 34° SE 02:51:01 10° SSW
STARLINK-1372 3.2 02:43:57 20° WSW 02:46:15 81° NNW 02:49:48 10° ENE
ATLAS CENTAUR R/B 2.5 02:43:07 10° WNW 02:46:20 49° SW 02:53:51 10° SSE
Cosmos 2074 Rocket 4.1 02:40:46 10° S 02:47:02 79° E 02:53:21 10° N
STARLINK-1201 3.5 02:43:43 10° WNW 02:47:53 79° SW 02:52:00 10° SE
Cosmos 2263 Rocket 4.4 02:43:02 10° N 02:47:53 29° NE 02:52:41 10° ESE
STARLINK-1378 3.2 02:46:05 19° WSW 02:48:29 79° NNW 02:52:01 10° NE
STARLINK-1329 3.2 02:46:35 19° WSW 02:49:00 78° NNW 02:52:33 10° NE
Cosmos 841 Rocket 3.7 02:44:27 13° S 02:49:09 72° ESE 02:54:23 10° NNE
STARLINK-1365 3.3 02:47:17 18° WSW 02:49:44 74° NNW 02:53:16 10° NE
GP-B 3.9 02:46:35 10° NNW 02:50:39 36° W 02:53:37 16° SW
STARLINK-1379 3.2 02:48:13 18° WSW 02:50:42 76° NNW 02:54:14 10° NE
STARLINK-1362 3.3 02:48:47 18° WSW 02:51:17 75° NNW 02:54:51 10° NE
IRS-1D 4.0 02:46:27 10° N 02:51:35 49° WNW 02:55:45 15° SW
STARLINK-1206 3.5 02:48:42 10° WNW 02:52:51 73° SW 02:56:58 10° SE
STARLINK-1373 3.3 02:50:59 17° WSW 02:53:36 73° NNW 02:57:09 10° NE
Cosmos-2242 3.5 02:49:58 10° NNW 02:53:59 40° W 02:57:20 14° SSW
COBE Rocket 3.9 02:49:15 10° SSE 02:54:09 89° W 02:59:15 10° NNW
Cosmos 1400 Rocket 2.9 02:51:04 10° N 02:55:13 89° W 02:59:21 10° S
STARLINK-1390 3.3 02:52:58 16° WSW 02:55:39 70° NNW 02:59:11 10° NE
NOSS 7 (E) 4.3 02:53:04 18° SW 02:55:40 87° NW 02:58:48 10° NE
Cosmos 2221 3.7 02:51:49 10° N 02:55:59 44° ENE 03:00:09 10° SSE
ATLAS 3B R/B 4.1 02:53:04 10° WNW 02:57:06 17° WSW 02:59:50 13° SW
STARLINK-1205 3.5 02:53:41 10° WNW 02:57:49 67° SW 03:01:55 10° SE
Cosmos 2184 Rocket 4.0 02:52:22 10° S 02:58:34 88° W 03:04:46 10° N
SL-08 R/B 3.4 02:55:05 10° S 02:59:42 55° W 03:04:17 10° NNW
CZ-4C R/B 3.5 02:56:34 10° SSE 03:00:06 64° ENE 03:03:43 10° N
STARLINK-1218 3.6 02:58:40 10° WNW 03:02:46 62° SW 03:06:51 10° SE
Cosmos 1703 4.3 03:02:09 15° SW 03:04:51 30° WNW 03:08:24 10° N
CZ-2D R/B 3.7 03:03:45 10° NNW 03:07:30 20° WNW 03:11:13 10° WSW
STARLINK-1254 3.6 03:03:40 10° WNW 03:07:44 57° SW 03:11:48 10° SE
Cosmos 2227 Rocket 2.9 03:02:47 10° NW 03:07:52 34° WSW 03:12:54 10° SSW
Cosmos 1763 Rocket 4.0 03:03:46 13° SW 03:08:02 44° WNW 03:12:54 10° N
Cosmos 1697 Rocket 2.8 03:04:56 12° SW 03:10:05 66° WNW 03:15:45 10° NNE
ADEOS II 2.7 03:05:20 10° N 03:10:17 43° WNW 03:15:04 11° SW
Cosmos 2150 Rocket 4.5 03:06:49 10° NNW 03:12:00 65° ENE 03:17:06 10° SSE
STARLINK-1231 3.7 03:08:41 10° WNW 03:12:43 52° SW 03:16:45 10° SE
STARLINK-1212 4.4 03:10:54 10° W 03:13:01 17° SW 03:15:07 10° S
STARLINK-1105 4.4 03:11:24 10° W 03:13:28 17° SW 03:15:33 10° S
STARLINK-1247 4.4 03:12:19 10° W 03:14:24 17° SW 03:16:28 10° S
STARLINK-1227 4.4 03:12:49 10° W 03:14:50 16° SW 03:16:51 10° S
Cosmos 1315 Rocket 3.6 03:11:23 10° N 03:15:15 54° ENE 03:19:04 10° SSE
STARLINK-1226 4.5 03:13:40 10° W 03:15:42 16° SW 03:17:43 10° S
SL-16 R/B 4.2 03:11:48 10° SSE 03:16:15 24° ESE 03:20:44 10° NE
STARLINK-1215 4.5 03:14:39 10° W 03:16:38 16° SW 03:18:37 10° S
Resurs 1-4 Rocket 4.0 03:13:37 10° NNW 03:16:54 17° WNW 03:20:10 10° W
CZ-2C R/B 2.9 03:13:27 10° NNE 03:17:09 71° ESE 03:20:51 10° S
STARLINK-1232 3.8 03:13:41 10° WNW 03:17:41 48° SW 03:21:40 10° SE
STARLINK-1224 4.4 03:15:54 10° NW 03:19:59 55° NNE 03:24:04 10° ESE
H-2A R/B 2.1 03:16:18 10° S 03:20:32 61° WSW 03:24:55 10° NNW
ARIANE 5 R/B 2.8 03:16:58 10° N 03:21:53 52° WNW 03:26:44 10° SW
STARLINK-1208 3.9 03:18:40 10° WNW 03:22:37 44° SW 03:26:33 10° SSE
BREEZE-M R/B 3.2 03:19:58 10° W 03:23:19 39° NNW 03:25:42 10° ENE
STARLINK-1225 4.3 03:20:53 10° NW 03:24:59 59° NNE 03:29:05 10° ESE
STARLINK-1271 4.0 03:23:42 10° WNW 03:27:36 40° SW 03:31:29 10° SSE
Spot 4 Rocket 4.2 03:22:43 10° N 03:27:49 64° WNW 03:32:52 10° SSW
BREEZE-M DEB (TANK) 2.0 03:26:13 10° W 03:28:09 29° SSW 03:30:23 10° SE
SL-24 DEB 4.3 03:23:37 10° N 03:28:18 86° E 03:32:54 10° S
Lacrosse 4 Rocket 1.5 03:25:21 10° NW 03:29:36 56° WSW 03:33:43 10° SSE
STARLINK-1230 4.2 03:25:51 10° NW 03:29:58 63° NNE 03:34:05 10° ESE
Cosmos 2154 Rocket 4.1 03:24:15 10° SSW 03:30:33 79° W 03:36:51 10° N
Meteor 1-27 4.4 03:25:10 10° NNW 03:30:36 55° W 03:36:00 10° S
USA 129 1.0 03:29:38 10° N 03:31:38 63° WNW 03:33:02 10° SSW
Cosmos 2058 3.4 03:27:43 10° S 03:31:50 63° E 03:36:00 10° NNE
STARLINK-1154 4.1 03:28:43 10° WNW 03:32:33 37° SW 03:36:22 10° SSE
SJ 16-02 3.2 03:30:41 10° WNW 03:32:57 14° W 03:35:12 10° SW
Cosmos 2298 Rocket 4.0 03:28:21 10° NNW 03:33:40 77° WSW 03:38:57 10° SSE
STARLINK-1243 4.1 03:30:50 10° NW 03:34:58 67° NNE 03:39:05 10° ESE
IDEFIX/ARIANE 42P 2.6 03:30:34 10° N 03:35:51 76° WNW 03:41:06 10° SSW
SAR-Lupe-1 4.4 03:32:43 10° SSE 03:36:14 71° ENE 03:39:47 10° N
STARLINK-1197 4.2 03:33:44 10° WNW 03:37:30 34° SW 03:41:15 10° SSE
STARLINK 1040 3.9 03:36:36 10° SSW 03:38:52 28° SE 03:41:09 10° ENE
STARLINK-1236 4.0 03:35:48 10° NW 03:39:58 72° NNE 03:44:05 10° ESE
CZ-4C R/B 2.7 03:36:30 10° WSW 03:41:27 50° NW 03:47:23 10° NNE
